Preview of NWS' New Version of Forecast
This preview is not operational and should not be used for support decisions.

Regional Weather Roundup (RWR)

Issued by National Weather Service (NWS)

                            
000
ASUS44 KMEG 171810
RWRTN 
TENNESSEE HOURLY STATE WEATHER ROUNDUP
NATIONAL WEATHER SERVICE MEMPHIS TN
1200 PM CST SUN FEB 17 2019

TNZ002-004-019-021-049-052-054-088>092-171900-
WEST TENNESSEE
  
CITY           SKY/WX    TMP DP  RH WIND       PRES   REMARKS
MEMPHIS INTL   CLOUDY    44  42  93 NW10      29.86R                  
NWS MEMPHIS      N/A     44 N/A N/A MISG        N/A                   
JACKSON        CLOUDY    45  43  93 W8        29.83S                  
DYERSBURG      CLOUDY    43  39  86 W7        29.84S                  
COVINGTON      CLOUDY    45  41  87 NW12      29.84R                  
UNION CITY     CLOUDY    43  39  87 W10       29.82R                  
PARIS          CLOUDY    43  41  93 W13       29.80S                  
SELMER         CLOUDY    46  45  93 VRB6      29.80F                  
SAVANNAH       CLOUDY    46  46 100 CALM      29.81F                  
$$

TNZ008-025-027-028-033-062-065-066-171900-
NORTH MIDDLE TENNESSEE
  
CITY           SKY/WX    TMP DP  RH WIND       PRES   REMARKS
NASHVILLE      CLOUDY    47  43  86 CALM      29.80S                  
DICKSON        CLOUDY    46  45  93 W10       29.77F                  
CLARKSVILLE    CLOUDY    46  41  82 W9        29.78F                  
LEBANON        CLOUDY    46  45  93 CALM      29.77F FOG              
SMYRNA         HVY RAIN  45  45 100 CALM      29.81F FOG              
MURFREESBORO   CLOUDY    46  45  93 CALM      29.77F FOG              
COOKEVILLE     CLOUDY    57  55  94 S8G18     29.76F                  
LIVINGSTON       N/A     52  52 100 SW6       29.76S FOG              
GALLATIN       CLOUDY    46  45  93 CALM      29.82S                  
CROSSVILLE     CLOUDY    51  49  92 S12G22    29.80F                  
ROCKWOOD       FOG       43  43 100 S6        29.84F VSB 0            
$$

TNZ061-075-076-078-094-096-097-171900-
SOUTH MIDDLE TENNESSEE
  
CITY           SKY/WX    TMP DP  RH WIND       PRES   REMARKS
LAWRENCEBURG   FOG       48  48 100 NW7G13    29.80S VSB 1            
LEWISBURG      FOG       48  48 100 NW6       29.79S VSB 3/4          
FAYETTEVILLE   FOG       55  55 100 S10       29.79F VSB 1/2          
TULLAHOMA      CLOUDY    57  55  94 S10G16    29.79F FOG              
WINCHESTER     CLOUDY    55  54  94 S10G16    29.82R                  
MCMINNVILLE    CLOUDY    59  55  88 SW12G21   29.77F                  
COLUMBIA       CLOUDY    46  46 100 VRB6      29.78F FOG              
SHELBYVILLE    CLOUDY    57  55  94 SW10      29.78F FOG              
$$

TNZ017-018-042-046-047-171900-
NORTHEAST TENNESSEE
  
CITY           SKY/WX    TMP DP  RH WIND       PRES   REMARKS
TRI CITIES     CLOUDY    43  43 100 NE6       29.88F FOG              
ELIZABETHTON   LGT RAIN  45  41  87 E8        29.89F                  
GREENEVILLE    CLOUDY    46  45  93 N3        29.84F                  
$$

TNZ012-013-036-069-073-074-171900-
CENTRAL EAST TENNESSEE
  
CITY           SKY/WX    TMP DP  RH WIND       PRES   REMARKS
KNOXVILLE      RAIN      46  44  93 CALM      29.85F                  
OAK RIDGE      LGT RAIN  45  45 100 CALM      29.87  FOG              
DOWNTOWN KNOXV CLOUDY    46  46 100 CALM      29.86F                  
GATLINBURG     CLOUDY    46  45  93 CALM      29.84F                  
MORRISTOWN     CLOUDY    46  46 100 E5        29.84F                  
JACKSBORO      CLOUDY    45  43  93 CALM      29.87F FOG              
$$

TNZ083-085-099-171900-
SOUTHEAST TENNESSEE
  
CITY           SKY/WX    TMP DP  RH WIND       PRES   REMARKS
CHATTANOOGA    CLOUDY    52  49  89 S8        29.87F FOG              
DAYTON         MOCLDY    52  50  93 SW7       29.86F FOG              
$$

SKY/WX REPORTED AS FAIR MEANS FEW OR NO CLOUDS BELOW
12 THOUSAND FEET.